EW1620 Weather Reports


time (UTC)temp
C
wind
direction
speed
KPH
gust
KPH
rain 1hr
cm
rain 24hr
cm
rain mn
cm
humidity
%
barometer
mb
20260504050504 18 18 8.0 22.5 0.00 0.00 0.00 59 1008.7
20260504050001 18 338 8.0 22.5 0.00 0.00 0.00 59 1008.7
20260504045601 18 329 9.7 22.5 0.00 0.00 0.00 59 1008.6
20260504045100 18 334 11.3 24.1 0.00 0.00 0.00 60 1008.7
20260504044600 18 355 11.3 24.1 0.00 0.00 0.00 60 1008.6
20260504044100 18 29 6.4 25.7 0.00 0.00 0.00 60 1008.7
20260504043700 18 11 11.3 25.7 0.00 0.00 0.00 60 1008.5
20260504043101 18 314 12.9 27.4 0.00 0.00 0.00 59 1008.6
20260504042558 18 360 12.9 27.4 0.00 0.00 0.00 59 1008.5
20260504042058 18 311 9.7 27.4 0.00 0.00 0.00 59 1008.3
20260504041557 18 321 12.9 24.1 0.00 0.00 0.00 59 1008.4
20260504041057 18 311 4.8 17.7 0.00 0.00 0.00 60 1008.4
20260504040557 17 355 6.4 19.3 0.00 0.00 0.00 60 1008.3
20260504040104 17 5 6.4 22.5 0.00 0.00 0.00 60 1008.4
20260504035556 17 312 9.7 25.7 0.00 0.00 0.00 59 1008.6
20260504035059 18 316 12.9 25.7 0.00 0.00 0.00 58 1008.5
20260504034556 18 11 6.4 25.7 0.00 0.00 0.00 59 1008.4
20260504034056 18 315 6.4 22.5 0.00 0.00 0.00 59 1008.5
20260504033656 18 54 12.9 24.1 0.00 0.00 0.00 59 1008.6
20260504033057 17 34 4.8 24.1 0.00 0.00 0.00 60 1008.6
20260504032553 17 43 6.4 22.5 0.00 0.00 0.00 59 1008.6
20260504032051 17 320 9.7 19.3 0.00 0.00 0.00 59 1008.6
20260504031617 17 319 9.7 20.9 0.00 0.00 0.00 60 1008.7
20260504031050 17 313 6.4 22.5 0.00 0.00 0.00 60 1008.7
20260504030550 17 53 11.3 22.5 0.00 0.00 0.00 59 1008.8
20260504030050 17 330 8.0 25.7 0.00 0.00 0.00 59 1008.9
20260504025549 17 344 11.3 22.5 0.00 0.00 0.00 59 1009.0
20260504025051 17 360 11.3 24.1 0.00 0.00 0.00 59 1009.1
20260504024548 17 319 11.3 27.4 0.00 0.00 0.00 59 1009.2
20260504024047 17 340 12.9 29.0 0.00 0.00 0.00 59 1009.3
20260504023648 17 5 8.0 25.7 0.00 0.00 0.00 59 1009.3
20260504023046 17 24 8.0 22.5 0.00 0.00 0.00 59 1009.5
20260504022547 17 323 11.3 25.7 0.00 0.00 0.00 60 1009.6
20260504022043 17 355 11.3 25.7 0.00 0.00 0.00 60 1009.7
20260504021541 17 27 11.3 25.7 0.00 0.00 0.00 59 1009.9
20260504021043 17 336 11.3 25.7 0.00 0.00 0.00 59 1010.0
20260504020542 17 325 14.5 25.7 0.00 0.00 0.00 58 1009.9
20260504020042 17 308 6.4 22.5 0.00 0.00 0.00 58 1010.0
20260504015541 17 342 11.3 33.8 0.00 0.00 0.00 57 1009.9
20260504015041 18 319 14.5 33.8 0.00 0.00 0.00 56 1010.1
20260504014540 17 330 9.7 24.1 0.00 0.00 0.00 56 1010.0
20260504014040 17 290 9.7 29.0 0.00 0.00 0.00 56 1009.9
20260504013640 17 296 14.5 29.0 0.00 0.00 0.00 56 1010.1
20260504013037 17 355 11.3 24.1 0.00 0.00 0.00 56 1010.1
20260504012535 17 55 6.4 25.7 0.00 0.00 0.00 57 1010.1
20260504012035 17 327 11.3 25.7 0.00 0.00 0.00 56 1010.3
20260504011533 17 348 9.7 24.1 0.00 0.00 0.00 57 1010.3
20260504011032 17 24 9.7 20.9 0.00 0.00 0.00 57 1010.3
20260504010535 17 45 6.4 25.7 0.00 0.00 0.00 58 1010.3
20260504010031 17 313 12.9 25.7 0.00 0.05 0.00 58 1010.2
20260504005530 17 310 8.0 25.7 0.00 0.05 0.00 59 1010.3
20260504005029 16 51 12.9 29.0 0.00 0.05 0.00 58 1010.3
20260504004530 16 311 12.9 29.0 0.00 0.05 0.00 60 1010.3
20260504004028 16 346 6.4 22.5 0.00 0.05 0.00 60 1010.3
20260504003628 16 344 12.9 27.4 0.00 0.05 0.00 60 1010.3
20260504003028 16 329 12.9 27.4 0.00 0.05 0.00 61 1010.3
20260504002526 16 9 4.8 22.5 0.00 0.05 0.00 62 1010.2
20260504002125 16 280 9.7 27.4 0.00 0.05 0.00 62 1010.3
20260504001525 16 11 14.5 27.4 0.00 0.05 0.00 62 1010.4
20260504001124 16 315 9.7 20.9 0.00 0.05 0.00 63 1010.4
20260504000522 16 336 8.0 24.1 0.00 0.05 0.00 65 1010.4
20260504000023 15 333 11.3 24.1 0.00 0.13 0.00 64 1010.4
20260503235520 15 42 9.7 20.9 0.00 0.13 0.00 65 1010.4
20260503235019 15 360 6.4 19.3 0.00 0.13 0.00 66 1010.4
20260503234522 15 315 4.8 25.7 0.00 0.13 0.00 66 1010.4
20260503234017 15 14 8.0 22.5 0.00 0.13 0.00 66 1010.5
20260503233616 15 330 11.3 22.5 0.00 0.13 0.00 67 1010.5
20260503233013 15 311 12.9 22.5 0.00 0.13 0.00 67 1010.6
20260503232515 15 40 8.0 25.7 0.00 0.13 0.00 67 1010.6
20260503232011 15 301 11.3 25.7 0.00 0.13 0.00 69 1010.7
20260503231516 15 18 8.0 20.9 0.00 0.13 0.00 71 1010.6
20260503231111 15 318 9.7 20.9 0.00 0.13 0.00 71 1010.6
20260503230507 14 350 6.4 16.1 0.00 0.13 0.00 72 1010.6
20260503230006 14 350 4.8 16.1 0.00 0.15 0.00 73 1010.7
20260503225504 14 325 4.8 16.1 0.00 0.15 0.00 74 1010.6
20260503225007 13 17 6.4 16.1 0.00 0.15 0.00 75 1010.6
20260503224502 13 360 4.8 14.5 0.00 0.15 0.00 76 1010.6
20260503224101 13 29 6.4 16.1 0.00 0.15 0.00 77 1010.7
20260503223559 13 45 6.4 14.5 0.00 0.15 0.00 78 1010.7
20260503223058 12 5 4.8 14.5 0.00 0.15 0.00 79 1010.7
20260503222556 12 13 4.8 14.5 0.00 0.15 0.00 80 1010.8
20260503222054 12 5 4.8 14.5 0.00 0.15 0.00 80 1010.9
20260503221553 12 25 4.8 14.5 0.00 0.15 0.00 81 1010.8
20260503221052 12 355 4.8 14.5 0.00 0.15 0.00 81 1010.7
20260503220551 11 10 6.4 16.1 0.00 0.15 0.00 81 1010.7
20260503220050 11 336 6.4 16.1 0.00 0.15 0.00 82 1010.7
20260503215549 11 18 6.4 14.5 0.00 0.15 0.00 82 1010.7
20260503215049 11 349 4.8 14.5 0.00 0.15 0.00 82 1010.7
20260503214555 11 360 4.8 12.9 0.00 0.15 0.00 82 1010.7
20260503214050 11 11 3.2 8.0 0.00 0.15 0.00 81 1010.7
20260503213546 11 20 1.6 6.4 0.00 0.15 0.00 81 1010.8
20260503213112 11 355 1.6 6.4 0.00 0.15 0.00 81 1010.8
20260503212546 10 22 3.2 8.0 0.00 0.15 0.00 81 1010.7
20260503212047 10 329 3.2 8.0 0.00 0.15 0.00 81 1010.8
20260503211610 10 280 1.6 6.4 0.00 0.15 0.00 81 1010.6
20260503211047 10 329 1.6 6.4 0.00 0.15 0.00 81 1010.4
20260503210543 10 355 1.6 4.8 0.00 0.15 0.00 81 1010.3
20260503210043 10 351 0.0 6.4 0.00 0.15 0.00 80 1010.3
20260503205543 10 5 0.0 6.4 0.00 0.23 0.00 80 1010.3
20260503205045 11 9 0.0 6.4 0.00 0.23 0.00 80 1010.2
20260503204559 11 360 3.2 6.4 0.00 0.23 0.00 80 1010.3
20260503204042 11 355 1.6 4.8 0.00 0.23 0.00 80 1010.3
20260503203541 11 343 1.6 4.8 0.00 0.23 0.00 80 1010.4
20260503203041 11 5 1.6 6.4 0.00 0.23 0.00 80 1010.3
20260503202540 11 5 1.6 6.4 0.00 0.23 0.00 80 1010.2
20260503202044 11 5 1.6 4.8 0.00 0.23 0.00 80 1010.3
20260503201540 11 348 1.6 4.8 0.00 0.23 0.00 80 1010.4
20260503201039 11 327 0.0 4.8 0.00 0.23 0.00 80 1010.4
20260503200539 11 344 0.0 4.8 0.00 0.23 0.00 80 1010.4
20260503200039 11 337 1.6 6.4 0.00 0.23 0.00 80 1010.4
20260503195538 11 339 1.6 6.4 0.00 0.33 0.00 80 1010.4
20260503195038 11 355 1.6 4.8 0.00 0.33 0.00 80 1010.2
20260503194540 11 346 0.0 4.8 0.00 0.33 0.00 80 1010.2
20260503194038 11 346 0.0 4.8 0.00 0.33 0.00 80 1010.2
20260503193539 11 341 1.6 4.8 0.00 0.33 0.00 80 1010.2
20260503193040 11 341 0.0 4.8 0.00 0.33 0.00 80 1010.2
20260503192537 11 9 0.0 6.4 0.00 0.33 0.00 80 1010.2
20260503192037 11 21 3.2 6.4 0.00 0.33 0.00 80 1010.2
20260503191553 11 5 1.6 4.8 0.00 0.33 0.00 80 1010.4
20260503191036 11 5 0.0 4.8 0.00 0.33 0.00 80 1010.4
20260503190535 11 360 0.0 4.8 0.00 0.33 0.00 79 1010.5
20260503190037 11 355 0.0 4.8 0.00 0.33 0.00 79 1010.6
20260503185537 11 331 1.6 6.4 0.00 0.33 0.00 79 1010.6
20260503185037 11 333 0.0 3.2 0.00 0.33 0.00 79 1010.5
20260503184535 11 15 1.6 4.8 0.00 0.33 0.00 79 1010.6
20260503184036 11 340 1.6 12.9 0.00 0.33 0.00 79 1010.6
20260503183533 11 340 3.2 12.9 0.00 0.33 0.00 79 1010.6
20260503183041 11 340 1.6 6.4 0.00 0.33 0.00 80 1010.6
20260503182532 11 14 1.6 6.4 0.00 0.33 0.00 80 1010.6
20260503182030 11 348 1.6 8.0 0.00 0.33 0.00 80 1010.8
20260503181530 11 348 3.2 9.7 0.00 0.33 0.00 80 1010.7
20260503181029 11 24 3.2 9.7 0.00 0.33 0.00 80 1010.8
20260503180528 11 325 3.2 12.9 0.00 0.33 0.00 80 1010.8
20260503180033 11 331 6.4 12.9 0.00 0.33 0.00 81 1010.8
20260503175527 11 337 4.8 12.9 0.00 0.33 0.00 81 1010.8
20260503175027 11 331 6.4 12.9 0.00 0.33 0.00 81 1010.8
20260503174536 10 21 6.4 14.5 0.00 0.33 0.00 81 1010.8
20260503174026 10 355 6.4 14.5 0.00 0.33 0.00 81 1010.8
20260503173526 10 336 4.8 9.7 0.00 0.33 0.00 81 1010.8
20260503173025 10 316 3.2 8.0 0.00 0.33 0.00 81 1010.8
20260503172523 10 336 1.6 6.4 0.00 0.33 0.00 80 1010.9
20260503172023 10 30 1.6 4.8 0.00 0.33 0.00 80 1010.9
20260503171528 10 26 0.0 3.2 0.00 0.33 0.00 80 1011.0
20260503171024 10 26 0.0 4.8 0.00 0.33 0.00 80 1011.0
20260503170522 10 24 1.6 4.8 0.00 0.33 0.00 80 1011.1
20260503151010 11 20 3.2 12.9 0.00 0.33 0.00 81 1011.3
20260503150511 11 16 1.6 6.4 0.00 0.33 0.00 81 1011.3
20260503131054 12 325 0.0 4.8 0.00 0.33 0.33 83 1011.9
20260503130555 12 325 0.0 4.8 0.00 0.33 0.33 84 1011.9
20260503120151 12 355 0.0 3.2 0.00 0.33 0.33 81 1012.4
20260503110543 12 355 0.0 1.6 0.00 0.33 0.33 78 1012.0
20260503110144 12 355 0.0 3.2 0.00 0.33 0.33 77 1012.1
20260503081536 16 20 0.0 3.2 0.00 0.33 0.33 65 1010.4
20260503081021 16 20 0.0 4.8 0.00 0.33 0.33 65 1010.4
20260503080521 16 20 0.0 8.0 0.00 0.33 0.33 65 1010.4
20260503072525 17 317 3.2 14.5 0.00 0.33 0.33 60 1010.4
20260503072022 17 344 3.2 11.3 0.00 0.33 0.33 59 1010.4
20260503071535 18 348 4.8 11.3 0.00 0.33 0.33 58 1010.3
20260503071021 18 329 3.2 9.7 0.00 0.33 0.33 58 1010.1
20260503070525 18 325 1.6 11.3 0.00 0.33 0.33 57 1010.1
20260503055018 19 298 6.4 22.5 0.00 0.33 0.33 53 1010.3
20260503054530 19 355 11.3 22.5 0.00 0.33 0.33 53 1010.3
20260503054021 19 309 8.0 17.7 0.00 0.33 0.33 53 1010.3
20260503053520 19 267 8.0 19.3 0.00 0.33 0.33 54 1010.4
20260503053015 19 265 6.4 25.7 0.00 0.33 0.33 53 1010.2
20260503052516 19 270 11.3 25.7 0.00 0.33 0.33 52 1010.2
20260503052016 19 275 14.5 25.7 0.00 0.33 0.33 51 1010.2